Find Local Weather

World > North America > United States > Illinois

Stonefort, Illinois Regional Weather

Lat: 37.62N, Lon: 88.71W
Wx Zone: ILZ086
Feedback
Expires:201812170100;;903538
ASUS43 KLOT 170008
RWRIL 

ILLINOIS REGIONAL WEATHER ROUNDUP
NATIONAL WEATHER SERVICE CHICAGO/ROMEOVILLE IL
600 PM CST SUN DEC 16 2018

NOTE: "FAIR" INDICATES FEW OR NO CLOUDS BELOW 12,000 FEET WITH NO
SIGNIFICANT WEATHER AND/OR OBSTRUCTIONS TO VISIBILITY.

* THESE STATIONS ARE NOT UNDER NWS QUALITY CONTROL. THEY ALSO MAY NOT
  REPORT WEATHER SUCH AS PRECIPITATION OR FOG.


ILZ064>066-069>071-074>076-080>082-084>086-088>090-092>094-170100-
SOUTH-CENTRAL ILLINOIS
  
CITY           SKY/WX    TMP DP  RH WIND       PRES   REMARKS
CARBONDALE     FAIR      44  35  70 S3        30.19R                  
6HR MIN TEMP:  44; 6HR MAX TEMP:  57;                                

CAIRO*         FAIR      47  42  83 SW6       30.21R                  
EFFINGHAM*     FAIR      41  36  81 S3        30.18R                  
MARION         PTCLDY    41  36  81 CALM      30.19S                  
MT. VERNON     FAIR      38  34  85 CALM      30.18S                  
CENTRALIA*     CLEAR     45  40  83 CALM      30.17R                  
SALEM*         FAIR      45  37  74 SW3       30.17S                  
METROPOLIS*    FAIR      46  39  74 SW5       30.21R                  
$$


SKY/WX - Weather  TMP - Temperature  DP - Dew Point  RH - Relative Humidity
WIND - Wind Direction/Speed PRES - Barometric Pressure